Weather in Jinan

China     36°40′49″N   117°01′49″E
temp.,
°C
wind,
m/s
gust,
m/s
humid.,
%
clouds,
%
prec.,
mm/h
press.,
hPa
HPBL,
m
28 november, sun
sun2823:00+10e1145100 0.0 103213
02:00+10sse1151100 0.0 103223
05:00+9sse2363100 0.0 103180
08:00+9s1367100 0.0 1031140
11:00+12s2550100 0.0 1031601
14:00+14ssw344598 0.0 10281079
17:00+13sw2254100 0.0 102784
20:00+11sse12625 0.0 102828
29 november, mon
mon2923:00+10s11690 0.0 102814
02:00+9se11735 0.0 102714
05:00+9e2274100 0.0 102526
08:00+9e1170100 0.0 102516
11:00+12w2360100 0.0 1025198
14:00+10wnw3576100 0.3 1023441
17:00+9wnw3792100 4.6 1022609
20:00+6nw61088100 7.9 10231029
30 november, tue
tue3023:00+5nnw388473 1.0 1024660
02:00+4w368390 1.0 1023338
05:00+5w51078100 0.1 1022619
08:00+4wnw511591 0.1 1025676
11:00+7nw793699 0.0 10271481
14:00+7nnw793327 0.0 10262033
17:00+4nnw611340 0.0 10291265
20:00+3n37390 0.0 1031367
1 december, wed
wed123:00+2n26440 0.0 1032347
02:00+1nw12410 0.0 1032144
05:00+1sw12390 0.0 103173
08:00+1wsw25410 0.0 1031214
11:00+5wsw46280 0.0 1031627
14:00+8wsw56250 0.0 1028986
17:00+6sw48320 0.0 1026624
20:00+5ssw511350 0.0 1025513
2 december, thu
thu223:00+5ssw512350 0.0 1023441
02:00+4sw411370 0.0 1021380
05:00+3sw410410 0.0 1018310
08:00+3sw49420 0.0 1019270
11:00+7wsw48310 0.0 1019487
14:00+11wnw57240 0.0 10181081
17:00+8nnw36350 0.0 1019252
20:00+6ne26430 0.0 1022211